| time (UTC) | temp F | wind direction | speed MPH | gust MPH | rain 1hr in | rain 24hr in | rain mn in | humidity % | barometer mb |
| 20260903093030 | 56 | 113 | 1.0 | 3.0 | 0.01 | 0.33 | 0.02 | 86 | 1009.8 |
| 20260903091513 | 56 | 121 | 1.0 | 3.0 | 0.01 | 0.33 | 0.02 | 86 | 1010.1 |
| 20260903090038 | 56 | 164 | 1.0 | 5.0 | 0.01 | 0.33 | 0.02 | 86 | 1009.9 |
| 20260903084522 | 56 | 179 | 3.0 | 7.0 | 0.02 | 0.33 | 0.02 | 85 | 1010.1 |
| 20260903083028 | 56 | 179 | 5.0 | 10.0 | 0.01 | 0.32 | 0.01 | 86 | 1010.1 |
| 20260903081528 | 56 | 159 | 5.0 | 10.0 | 0.01 | 0.32 | 0.01 | 86 | 1010.1 |
| 20260903080015 | 56 | 225 | 4.0 | 13.0 | 0.01 | 0.32 | 0.01 | 85 | 1010.1 |
| 20260903074537 | 57 | 155 | 4.0 | 12.0 | 0.00 | 0.31 | 0.00 | 84 | 1010.1 |
| 20260903073038 | 57 | 198 | 6.0 | 15.0 | 0.01 | 0.31 | 0.00 | 84 | 1010.1 |
| 20260903071531 | 57 | 194 | 7.0 | 15.0 | 0.01 | 0.31 | 0.00 | 85 | 1009.8 |
| 20260903070012 | 57 | 200 | 6.0 | 14.0 | 0.01 | 0.31 | 0.00 | 85 | 1009.9 |
| 20260903064518 | 57 | 195 | 7.0 | 16.0 | 0.01 | 0.31 | 0.31 | 83 | 1010.0 |
| 20260903063022 | 57 | 192 | 3.0 | 10.0 | 0.00 | 0.30 | 0.30 | 82 | 1010.0 |
| 20260903061530 | 57 | 186 | 2.0 | 11.0 | 0.00 | 0.30 | 0.30 | 82 | 1009.9 |
| 20260903060008 | 57 | 198 | 3.0 | 7.0 | 0.00 | 0.30 | 0.30 | 83 | 1009.8 |
| 20260903054507 | 57 | 187 | 1.0 | 9.0 | 0.00 | 0.30 | 0.30 | 83 | 1010.0 |
| 20260903053008 | 57 | 202 | 4.0 | 9.0 | 0.00 | 0.30 | 0.30 | 84 | 1010.0 |
| 20260903051509 | 57 | 208 | 4.0 | 9.0 | 0.00 | 0.30 | 0.30 | 84 | 1010.0 |
| 20260903050010 | 57 | 196 | 6.0 | 10.0 | 0.00 | 0.30 | 0.30 | 84 | 1009.6 |
| 20260903044508 | 58 | 208 | 4.0 | 10.0 | 0.00 | 0.30 | 0.30 | 84 | 1009.8 |
| 20260903043009 | 58 | 184 | 6.0 | 9.0 | 0.00 | 0.30 | 0.30 | 83 | 1009.6 |
| 20260903041509 | 58 | 198 | 6.0 | 9.0 | 0.00 | 0.30 | 0.30 | 84 | 1009.5 |
| 20260903040010 | 58 | 156 | 6.0 | 12.0 | 0.00 | 0.30 | 0.30 | 85 | 1009.1 |
| 20260903034517 | 58 | 178 | 7.0 | 13.0 | 0.00 | 0.30 | 0.30 | 85 | 1009.1 |
| 20260903033006 | 58 | 167 | 5.0 | 10.0 | 0.00 | 0.30 | 0.30 | 86 | 1009.0 |
| 20260903031510 | 0 | 157 | 5.0 | 9.0 | 0.00 | 0.30 | 0.30 | 86 | 1009.0 |
| 20260903030013 | 59 | 180 | 5.0 | 13.0 | 0.00 | 0.30 | 0.30 | 85 | 1008.6 |
| 20260903024507 | 59 | 156 | 7.0 | 11.0 | 0.00 | 0.30 | 0.30 | 85 | 1008.6 |
| 20260903023011 | 59 | 191 | 3.0 | 7.0 | 0.00 | 0.30 | 0.30 | 86 | 1008.5 |
| 20260903021513 | 60 | 157 | 6.0 | 10.0 | 0.00 | 0.30 | 0.30 | 86 | 1008.4 |
| 20260903020031 | 59 | 169 | 5.0 | 9.0 | 0.00 | 0.30 | 0.30 | 86 | 1007.8 |
| 20260903014515 | 59 | 213 | 3.0 | 8.0 | 0.00 | 0.30 | 0.30 | 86 | 1007.9 |
| 20260903013016 | 59 | 183 | 4.0 | 9.0 | 0.00 | 0.30 | 0.30 | 1007.8 | |
| 20260903011513 | 60 | 173 | 5.0 | 11.0 | 0.00 | 0.30 | 0.30 | 1007.9 | |
| 20260903010014 | 60 | 196 | 5.0 | 10.0 | 0.01 | 0.30 | 0.30 | 86 | 1007.8 |
| 20260903004514 | 60 | 173 | 3.0 | 7.0 | 0.01 | 0.30 | 0.30 | 87 | 1007.4 |
| 20260903003017 | 60 | 209 | 3.0 | 6.0 | 0.01 | 0.30 | 0.30 | 87 | 1007.4 |
| 20260903001511 | 59 | 231 | 5.0 | 11.0 | 0.01 | 0.30 | 0.30 | 87 | 1007.3 |
| 20260903000016 | 60 | 223 | 6.0 | 10.0 | 0.00 | 0.29 | 0.29 | 87 | 1007.5 |
| 20260902234507 | 60 | 232 | 4.0 | 11.0 | 0.00 | 0.29 | 0.29 | 86 | 1007.4 |
| 20260902233011 | 60 | 192 | 5.0 | 12.0 | 0.00 | 0.29 | 0.29 | 85 | 1007.2 |
| 20260902231505 | 60 | 182 | 6.0 | 10.0 | 0.00 | 0.29 | 0.29 | 1007.3 | |
| 20260902230008 | 61 | 201 | 4.0 | 9.0 | 0.00 | 0.29 | 0.29 | 84 | 1007.2 |
| 20260902224508 | 61 | 135 | 2.0 | 7.0 | 0.00 | 0.29 | 0.29 | 85 | 1006.9 |
| 20260902223003 | 61 | 154 | 3.0 | 7.0 | 0.00 | 0.29 | 0.29 | 86 | 1006.9 |
| 20260902221506 | 60 | 142 | 2.0 | 5.0 | 0.01 | 0.29 | 0.29 | 88 | 1007.2 |
| 20260902220010 | 59 | 98 | 3.0 | 5.0 | 0.02 | 0.29 | 0.29 | 91 | 1007.0 |
| 20260902214502 | 0 | 100 | 2.0 | 8.0 | 0.02 | 0.29 | 0.29 | 91 | 1007.1 |
| 20260902213003 | 59 | 88 | 4.0 | 7.0 | 0.03 | 0.29 | 0.29 | 91 | 1007.0 |
| 20260902211512 | 59 | 49 | 3.0 | 10.0 | 0.06 | 0.28 | 0.28 | 90 | 1007.1 |
| 20260902210011 | 59 | 101 | 4.0 | 8.0 | 0.09 | 0.27 | 0.27 | 90 | 1007.0 |
| 20260902204514 | 59 | 84 | 5.0 | 8.0 | 0.14 | 0.27 | 0.27 | 90 | 1006.8 |
| 20260902203025 | 59 | 76 | 6.0 | 8.0 | 0.15 | 0.26 | 0.26 | 90 | 1006.4 |
| 20260902201524 | 59 | 92 | 4.0 | 8.0 | 0.12 | 0.22 | 0.22 | 89 | 1006.7 |
| 20260902200024 | 59 | 117 | 4.0 | 8.0 | 0.10 | 0.18 | 0.18 | 89 | 1006.8 |
| 20260902194526 | 59 | 79 | 5.0 | 8.0 | 0.06 | 0.13 | 0.13 | 88 | 1006.9 |
| 20260902193024 | 59 | 101 | 4.0 | 8.0 | 0.05 | 0.11 | 0.11 | 88 | 1007.1 |
| 20260902191524 | 59 | 95 | 3.0 | 7.0 | 0.06 | 0.10 | 0.10 | 86 | 1007.1 |
| 20260902190032 | 60 | 96 | 3.0 | 4.0 | 0.06 | 0.08 | 0.08 | 85 | 1007.2 |
| 20260902184533 | 60 | 184 | 2.0 | 4.0 | 0.07 | 0.07 | 0.07 | 81 | 1007.5 |
| 20260902183046 | 61 | 157 | 1.0 | 4.0 | 0.06 | 0.06 | 0.06 | 79 | 1007.7 |
| 20260902181523 | 62 | 221 | 2.0 | 7.0 | 0.04 | 0.04 | 0.04 | 80 | 1007.8 |
| 20260902180028 | 62 | 221 | 3.0 | 4.0 | 0.02 | 0.02 | 0.02 | 80 | 1007.6 |
| 20260902174527 | 63 | 69 | 1.0 | 3.0 | 0.00 | 0.00 | 0.00 | 76 | 1007.3 |
| 20260902173027 | 63 | 77 | 3.0 | 6.0 | 0.00 | 0.00 | 0.00 | 74 | 1007.2 |
| 20260902171516 | 64 | 70 | 2.0 | 6.0 | 0.00 | 0.00 | 0.00 | 72 | 1006.7 |
| 20260902170016 | 65 | 83 | 3.0 | 6.0 | 0.00 | 0.00 | 0.00 | 68 | 1006.8 |
| 20260902164523 | 64 | 93 | 4.0 | 8.0 | 0.00 | 0.00 | 0.00 | 68 | 1006.8 |
| 20260902163017 | 64 | 93 | 3.0 | 8.0 | 0.00 | 0.00 | 0.00 | 68 | 1006.9 |
| 20260902161516 | 64 | 77 | 3.0 | 8.0 | 0.00 | 0.00 | 0.00 | 69 | 1006.9 |
| 20260902160017 | 63 | 93 | 4.0 | 8.0 | 0.00 | 0.00 | 0.00 | 69 | 1007.0 |
| 20260902154520 | 63 | 120 | 3.0 | 8.0 | 0.00 | 0.00 | 0.00 | 69 | 1007.0 |
| 20260902153016 | 62 | 101 | 3.0 | 7.0 | 0.00 | 0.00 | 0.00 | 70 | 1007.3 |
| 20260902151518 | 62 | 114 | 3.0 | 5.0 | 0.00 | 0.00 | 0.00 | 70 | 1007.4 |
| 20260902150021 | 62 | 92 | 4.0 | 8.0 | 0.00 | 0.00 | 0.00 | 71 | 1007.5 |
| 20260902144518 | 62 | 123 | 2.0 | 4.0 | 0.00 | 0.00 | 0.00 | 71 | 1007.5 |
| 20260902143021 | 61 | 97 | 2.0 | 5.0 | 0.00 | 0.00 | 0.00 | 71 | 1007.9 |
| 20260902141512 | 61 | 109 | 2.0 | 7.0 | 0.00 | 0.00 | 0.00 | 72 | 1008.2 |
| 20260902140020 | 61 | 136 | 2.0 | 4.0 | 0.00 | 0.00 | 0.00 | 73 | 1008.3 |
| 20260902134524 | 61 | 83 | 3.0 | 7.0 | 0.00 | 0.00 | 0.00 | 73 | 1008.6 |
| 20260902133029 | 61 | 82 | 5.0 | 7.0 | 0.00 | 0.00 | 0.00 | 72 | 1008.8 |
| 20260902131514 | 61 | 91 | 3.0 | 4.0 | 0.00 | 0.00 | 0.00 | 72 | 1008.9 |
| 20260902130016 | 61 | 91 | 2.0 | 3.0 | 0.00 | 0.00 | 0.00 | 72 | 1008.9 |
| 20260902124523 | 61 | 80 | 0.0 | 2.0 | 0.00 | 0.00 | 0.00 | 73 | 1009.4 |
| 20260902123029 | 61 | 80 | 1.0 | 3.0 | 0.00 | 0.00 | 0.00 | 73 | 1009.6 |
| 20260902121507 | 61 | 67 | 2.0 | 6.0 | 0.00 | 0.00 | 0.00 | 73 | 1009.6 |
| 20260902120019 | 61 | 94 | 3.0 | 4.0 | 0.00 | 0.00 | 0.00 | 73 | 1009.6 |
| 20260902114521 | 61 | 103 | 1.0 | 4.0 | 0.00 | 0.00 | 0.00 | 73 | 1010.0 |
| 20260902113025 | 61 | 96 | 2.0 | 4.0 | 0.00 | 0.00 | 0.00 | 73 | 1010.1 |
| 20260902111529 | 61 | 74 | 2.0 | 3.0 | 0.00 | 0.00 | 0.00 | 73 | 1010.2 |
| 20260902110034 | 61 | 82 | 2.0 | 3.0 | 0.00 | 0.00 | 0.00 | 73 | 1010.4 |
| 20260902104532 | 61 | 98 | 1.0 | 3.0 | 0.00 | 0.00 | 0.00 | 72 | 1010.4 |
| 20260902103044 | 61 | 195 | 0.0 | 2.0 | 0.00 | 0.00 | 0.00 | 72 | 1010.5 |
| 20260902101530 | 61 | 114 | 0.0 | 2.0 | 0.00 | 0.00 | 0.00 | 72 | 1010.6 |
| 20260902100028 | 61 | 139 | 1.0 | 4.0 | 0.00 | 0.00 | 0.00 | 72 | 1010.6 |
| 20260902094515 | 61 | 167 | 1.0 | 6.0 | 0.00 | 0.00 | 0.00 | 72 | 1010.8 |